Weather History for Key West NAF, FL

Change the Weather History Date:

Monday, October 22, 2012

  Actual Average Record
Temperature  
Mean Temperature 82 °F -  
Max Temperature 86 °F 83 °F 90 °F (2007)
Min Temperature 78 °F 74 °F 68 °F (1976)
Cooling Degree Days 17    
Growing Degree Days 32 (Base 50)    
Moisture  
Dew Point 67 °F    
Average Humidity 63    
Maximum Humidity 74    
Minimum Humidity 53    
Precipitation  
Precipitation 0.00 in - - ()
Sea Level Pressure  
Sea Level Pressure 29.95 in    
Wind  
Wind Speed 12 mph (ENE)    
Max Wind Speed 17 mph    
Max Gust Speed 26 mph    
Visibility 10 miles    
Events      
Averages and records for this station are not official NWS values.
T = Trace of Precipitation, MM = Missing Value Source: NWS Daily Summary

Daily Weather History Graph

Daily Weather History Graph

Search for Another Location

Airport:

Trip Planner

Search our weather history database for the weather conditions in past years. The results will help you decide how hot, cold, wet, or windy it might be!

Date:

Astronomy

Oct. 22, 2012 Rise Set
Actual Time 7:28 AM EDT 6:53 PM EDT
Civil Twilight 7:05 AM EDT 7:16 PM EDT
Nautical Twilight 6:38 AM EDT 7:43 PM EDT
Astronomical Twilight 6:11 AM EDT 8:09 PM EDT
Moon 2:21 PM EDT (10/22) 12:57 AM EDT (10/22)
Length of Visible Light 12h 11m
Length of Day
11h 25m
First Quarter, 56% of the Moon is Illuminated
Oct 22
First Quarter
Oct 29
Full
Nov 6
Last Quarter
Nov 13
New
Nov 20
First Quarter

Hourly Weather History & Observations

Time (EDT) Temp. Heat Index Dew Point Humidity Pressure Visibility Wind Dir Wind Speed Gust Speed Precip Events Conditions
12:53 AM 80.1 °F 82.3 °F 66.9 °F 64% 29.96 in 10.0 mi ENE 12.7 mph 17.3 mph N/A   Clear
1:53 AM 79.0 °F - 66.0 °F 64% 29.95 in 10.0 mi ENE 9.2 mph - N/A   Clear
2:53 AM 78.1 °F - 66.9 °F 68% 29.94 in 10.0 mi NE 10.4 mph 16.1 mph N/A   Clear
3:53 AM 78.1 °F - 66.9 °F 68% 29.93 in 10.0 mi NE 9.2 mph - N/A   Clear
4:53 AM 78.1 °F - 68.0 °F 71% 29.91 in 10.0 mi NE 10.4 mph - N/A   Clear
5:53 AM 78.1 °F - 68.0 °F 71% 29.94 in 10.0 mi NE 10.4 mph 16.1 mph N/A   Clear
6:53 AM 78.1 °F - 68.0 °F 71% 29.95 in 10.0 mi NE 9.2 mph 16.1 mph N/A   Clear
7:53 AM 78.1 °F - 69.1 °F 74% 29.97 in 10.0 mi NE 11.5 mph 17.3 mph N/A   Partly Cloudy
8:53 AM 80.1 °F 82.9 °F 69.1 °F 69% 29.98 in 10.0 mi NE 12.7 mph 20.7 mph N/A   Partly Cloudy
9:53 AM 82.0 °F 85.9 °F 70.0 °F 67% 29.98 in 10.0 mi NNE 16.1 mph 21.9 mph N/A   Partly Cloudy
10:53 AM 82.9 °F 87.0 °F 70.0 °F 65% 29.98 in 10.0 mi NE 11.5 mph 21.9 mph N/A   Partly Cloudy
11:53 AM 84.9 °F 89.4 °F 70.0 °F 61% 29.97 in 10.0 mi ENE 11.5 mph 19.6 mph N/A   Scattered Clouds
12:53 PM 86.0 °F 90.1 °F 69.1 °F 57% 29.96 in 10.0 mi NE 15.0 mph 21.9 mph N/A   Scattered Clouds
1:53 PM 86.0 °F 90.1 °F 69.1 °F 57% 29.93 in 10.0 mi ENE 12.7 mph 24.2 mph N/A   Scattered Clouds
2:53 PM 86.0 °F 89.4 °F 68.0 °F 55% 29.91 in 10.0 mi ENE 16.1 mph 24.2 mph N/A   Scattered Clouds
3:53 PM 84.9 °F 87.1 °F 66.0 °F 53% 29.91 in 10.0 mi East 15.0 mph 24.2 mph N/A   Scattered Clouds
4:53 PM 84.0 °F 85.8 °F 64.9 °F 53% 29.92 in 10.0 mi ENE 15.0 mph 25.3 mph N/A   Scattered Clouds
5:53 PM 82.9 °F 84.4 °F 64.0 °F 53% 29.93 in 10.0 mi ENE 17.3 mph 26.5 mph N/A   Scattered Clouds
6:53 PM 82.0 °F 83.4 °F 64.0 °F 54% 29.94 in 10.0 mi ENE 13.8 mph 23.0 mph N/A   Scattered Clouds
7:53 PM 81.0 °F 83.3 °F 66.9 °F 62% 29.94 in 10.0 mi ENE 11.5 mph 20.7 mph N/A   Scattered Clouds
8:53 PM 81.0 °F 83.3 °F 66.9 °F 62% 29.96 in 10.0 mi ENE 9.2 mph 17.3 mph N/A   Partly Cloudy
9:53 PM 81.0 °F 83.8 °F 68.0 °F 65% 29.96 in 10.0 mi NE 9.2 mph 19.6 mph N/A   Scattered Clouds
10:53 PM 80.1 °F 82.7 °F 68.0 °F 67% 29.96 in 10.0 mi NE 9.2 mph 19.6 mph N/A   Partly Cloudy
11:53 PM 80.1 °F 82.1 °F 66.0 °F 62% 29.96 in 10.0 mi ENE 10.4 mph 17.3 mph N/A   Clear